Tracking 31027 objects as of 19-Jul-2025
HD Live streaming from Space Station
objects crossing your sky now

SL-24 DEB

Track SL-24 DEB now!
10-day predictions


NORAD ID: 33398
Int'l Code: 2008-049C
Perigee: 595.4 km
Apogee: 625.9 km
Inclination: 98.8 °
Period: 96.8 minutes
Semi major axis: 6981 km
RCS: 7.1923 m2 (large)
Launch date: October 1, 2008
Source: Commonwealth of Independent States (former USSR) (CIS)
Launch site: Orenburg, Russia (OREN)

Note: This is SATELLITE DEBRIS
Your satellite tracking list
IRIDIUM 134
Track 1 satellite(s)




NASA's NSSDC Master Catalog

Two Line Element Set (TLE):
1 33398U 08049C   25199.79565775  .00002639  00000-0  29213-3 0  9994
2 33398  98.8081 163.6527 0021885 184.6646 175.4367 14.88219815903766
Source of the keplerian elements: AFSPC